User: anonymous   Login
Location: Unspecified
(0.0000°N, 0.0000°E)
Time: 19:39:50
(UTC+00:00)
Language:

USA 254 - Orbit

View from above orbital plane
View from above orbital plane
View from above satellite
View from above satellite

Ground track
Ground track

The orbit data is extracted from the following two-line orbital elements,

1 40100U 14043B   18321.18374826 0.00000000  00000-0  00000-0 0    04
2 40100   0.0650 106.2780 0004000  38.9349 321.0650  1.00196667    05
Epoch (UTC): 17 November 2018 04:24:35
Eccentricity: 0.0004000
inclination: 0.0650°
perigee height: 35790 km
apogee height: 35824 km
right ascension of ascending node: 106.2780°
argument of perigee: 38.9349°
revolutions per day: 1.00196667
mean anomaly at epoch: 321.0650°
orbit number at epoch: 0

The dashed part of the orbit path shows where the satellite is in the earth's shadow,  

DLR